Free Severe Weather Alerts by Email and Text Message   

 
Follow iAlert.com on twitter @ialertcom
Search For Active Alerts in Your Area  
  Hi Guest:  [ Sign-up / Services ] [ Login ]

Current weather by "City, St" or "zip code"  

 

Advertise Here

Hazardous Weather Conditions

No active alerts for PHOENIX, ARIZONA

Current Conditions: PHOENIX, ARIZONA

Fair


75.0 F

Last Updated on Apr 21 2018, 10:53 am MST
Humidity: 20%
Wind Speed: SW 6.9 mph
Barometer 30.06 in
Dewpoint: 30.9 F
Visibility: 10.00 mi
Precip: --
Heat Index: NA
Wind Chill: NA
Current conditions at:

Phoenix, Phoenix-Deer Valley Municipal Airport, AZ (KDVT)

Lat: 33.69 Lon: -112.06

Local Radar Image active severe weather and emergency alerts image image weather storm and storm spotter reports image weather observation monitoring service image
Local
Radar
Active
Alerts
Storm Reports Weather
Monitoring

Weather Alert Notification Services


ialert severe weather and emergency alerts by text message and email ialert daily weather forecast by email and text message service ialert real-time weather-observation monitoring and alert notification service ialert storm report monitoring alert notification

Observation History for PHOENIX, ARIZONA


Time Wind
(mph)
Vis
(mi)
Weather Precip (in) Temperature (F) Relative
Humidity
Wind
Chill
(°F)
Heat
Index
(°F)
Pressure
Air Dwpt altimeter
(in)
sea level
(mb)
10:53 am MST SW 6.9 10.00 Fair -- 75.0 30.9 20% NA NA 30.06 1016.1
9:53 am MST S 6.9 10.00 Fair -- 73.0 32.0 22% NA NA 30.07 1016.4
8:53 am MST S 4.6 10.00 Fair -- 68.0 32.0 26% NA NA 30.07 1016.6
7:53 am MST N 0.0 10.00 Fair -- 63.0 32.0 31% NA NA 30.07 1016.7
6:53 am MST N 0.0 7.00 Fair -- 59.0 30.9 35% NA NA 30.06 1016.5
5:53 am MST W 4.6 10.00 Fair -- 58.0 30.9 36% 58 NA 30.05 1016.1
4:53 am MST NE 10.4 10.00 Fair -- 59.0 30.9 35% 57 NA 30.03 1015.3
3:53 am MST NE 11.5 10.00 Fair -- 59.0 30.9 35% 57 NA 30.03 1015.5
2:53 am MST NE 9.2 10.00 Fair -- 61.0 30.9 32% 60 NA 30.04 1015.5
1:53 am MST NE 6.9 10.00 Fair -- 62.0 30.9 31% 62 NA 30.04 1015.7
12:53 am MST E 5.8 10.00 Fair -- 64.0 30.9 29% NA NA 30.05 1016.1
11:53 pm MST NE 9.2 10.00 Fair -- 65.0 30.9 28% NA NA 30.04 1015.6
10:53 pm MST NE 4.6 10.00 Fair -- 65.0 28.0 25% NA NA 30.03 1015.2
9:53 pm MST N 0.0 10.00 Fair -- 68.0 28.9 23% NA NA 30.01 1014.9
8:53 pm MST S 4.6 10.00 Fair -- 70.0 28.0 21% NA NA 30.00 1014.4
7:53 pm MST W 9.2 10.00 Fair -- 73.0 28.0 19% NA NA 29.98 1013.7
6:53 pm MST W 11.5 10.00 A Few Clouds -- 74.0 28.0 18% NA NA 29.95 1012.6
5:53 pm MST W 11.5 10.00 Mostly Cloudy -- 75.0 28.0 18% NA NA 29.93 1012.0
4:53 pm MST SW 16.1 10.00 Fair -- 76.0 28.0 17% NA NA 29.93 1012.1
3:53 pm MST SW 8.1 G 19.6 10.00 Fair -- 75.0 27.0 17% NA NA 29.95 1012.6
2:53 pm MST W 16.1 G 21.9 10.00 Fair -- 75.0 27.0 17% NA NA 29.97 1013.4
1:53 pm MST NW 8.1 G 21.9 10.00 Fair -- 71.0 27.0 19% NA NA 29.98 1013.8
12:53 pm MST 10.00 Fair -- 69.0 27.0 21% NA NA 29.99 1014.1
11:53 am MST W 13.8 G 18.4 10.00 Fair -- 69.0 27.0 21% NA NA 30.01 1014.6

Regional Weather Observation:


Glendale, Glendale Municipal Airport, AZ (KGEU)

A Few Clouds
79.0 F

Luke Air Force Base / Phoenix, AZ (KLUF)

Fair
77.0 F

Phoenix, Phoenix Sky Harbor International Airport, AZ (KPHX)

Fair
76.0 F

Goodyear Municipal, AZ (KGYR)

Partly Cloudy
79.0 F

Buckeye Municipal Airport, AZ (KBXK)

Fair
77.0 F

Scottsdale Airport, AZ (KSDL)

Fair
77.0 F

Advertise Here


Advertise Here